Location: Asheville, NC
(35.6000°N, 82.5500°W)
Time: 09:09:17
(UTC-04:00)

XW-2C - Pass Details

Date: 10 January 2018
Orbit: 511 x 530 km, 97.5° (Epoch: 26 April)

Event Time Altitude Azimuth Distance (km) Brightness Sun altitude
Rises 06:50:12 0° 6° (N) 2,650 ? -10.2°
Reaches altitude 10° 06:52:20 10° 1° (N) 1,754 ? -9.7°
Maximum altitude 06:56:01 52° 285° (WNW) 647 ? -9.0°
Drops below altitude 10° 06:59:39 10° 208° (SSW) 1,730 ? -8.4°
Sets 07:01:45 0° 203° (SSW) 2,610 ? -8.0°
